Orbital elements of FENGYUN 1C DEB
| Launched | 9 May 1999 |
| Flight ended | – |
| Launch site | Taiyuan Space Center, PRC |
| Owner | People's Republic of China |
| NORAD ID | 30221 |
| Date fetched |
Epoch osculation |
Inc. [°] |
Ecc. | RA asc node [hr] |
Arg Peri. [°] |
Mean anom [°] |
Mean motion [rev/day] |
Abs. mag |
| Date fetched |
Epoch osculation |
Inc. [°] |
Ecc. | RA asc node [hr] |
Arg Peri. [°] |
Mean anom [°] |
Mean motion [rev/day] |
Abs. mag |
| 2026 May 09 17:57 | 2026 May 05 06:43:20 | 98.9498 | 0.01435 | 15.0602 | 332.9902 | 26.3872 | 14.46160 | – |
| 2026 May 08 17:57 | 2026 May 05 06:43:20 | 98.9498 | 0.01435 | 15.0602 | 332.9902 | 26.3872 | 14.46160 | – |
| 2026 May 07 17:58 | 2026 May 05 06:43:20 | 98.9498 | 0.01435 | 15.0602 | 332.9902 | 26.3872 | 14.46160 | – |
| 2026 May 06 17:57 | 2026 May 05 06:43:20 | 98.9498 | 0.01435 | 15.0602 | 332.9902 | 26.3872 | 14.46160 | – |
| 2026 May 05 17:57 | 2026 May 05 06:43:20 | 98.9498 | 0.01435 | 15.0602 | 332.9902 | 26.3872 | 14.46160 | – |
| 2026 May 04 17:57 | 2026 Apr 30 12:08:53 | 98.9493 | 0.01437 | 14.7242 | 347.2879 | 26.3872 | 14.46160 | – |
| 2026 May 03 17:57 | 2026 Apr 30 12:08:53 | 98.9493 | 0.01437 | 14.7242 | 347.2879 | 26.3872 | 14.46160 | – |
| 2026 May 02 17:57 | 2026 Apr 30 12:08:53 | 98.9493 | 0.01437 | 14.7242 | 347.2879 | 26.3872 | 14.46160 | – |
| 2026 May 01 17:56 | 2026 Apr 30 12:08:53 | 98.9493 | 0.01437 | 14.7242 | 347.2879 | 26.3872 | 14.46160 | – |
| 2026 Apr 30 17:56 | 2026 Apr 30 12:08:53 | 98.9493 | 0.01437 | 14.7242 | 347.2879 | 26.3872 | 14.46160 | – |
| 2026 Apr 29 17:57 | 2026 Apr 24 05:02:31 | 98.9489 | 0.01441 | 14.2811 | 6.1167 | 26.3872 | 14.46160 | – |
| 2026 Apr 28 17:56 | 2026 Apr 24 05:02:31 | 98.9489 | 0.01441 | 14.2811 | 6.1167 | 26.3872 | 14.46160 | – |
| 2026 Apr 27 17:58 | 2026 Apr 24 05:02:31 | 98.9489 | 0.01441 | 14.2811 | 6.1167 | 26.3872 | 14.46160 | – |
| 2026 Apr 26 17:58 | 2026 Apr 24 05:02:31 | 98.9489 | 0.01441 | 14.2811 | 6.1167 | 26.3872 | 14.46160 | – |
| 2026 Apr 25 17:58 | 2026 Apr 24 05:02:31 | 98.9489 | 0.01441 | 14.2811 | 6.1167 | 26.3872 | 14.46160 | – |
| 2026 Apr 24 17:59 | 2026 Apr 24 05:02:31 | 98.9489 | 0.01441 | 14.2811 | 6.1167 | 26.3872 | 14.46160 | – |
| 2026 Apr 23 17:57 | 2026 Apr 19 05:29:06 | 98.9484 | 0.01444 | 13.9306 | 20.9794 | 26.3872 | 14.46160 | – |
| 2026 Apr 22 17:57 | 2026 Apr 19 05:29:06 | 98.9484 | 0.01444 | 13.9306 | 20.9794 | 26.3872 | 14.46160 | – |
| 2026 Apr 21 17:57 | 2026 Apr 19 05:29:06 | 98.9484 | 0.01444 | 13.9306 | 20.9794 | 26.3872 | 14.46160 | – |
| 2026 Apr 20 17:57 | 2026 Apr 19 05:29:06 | 98.9484 | 0.01444 | 13.9306 | 20.9794 | 26.3872 | 14.46160 | – |
| 2026 Apr 19 17:58 | 2026 Apr 19 05:29:06 | 98.9484 | 0.01444 | 13.9306 | 20.9794 | 26.3872 | 14.46160 | – |
| 2026 Apr 18 17:56 | 2026 Apr 13 05:01:10 | 98.9480 | 0.01447 | 13.5071 | 38.9055 | 26.3872 | 14.46160 | – |
| 2026 Apr 16 17:57 | 2026 Apr 13 05:01:10 | 98.9480 | 0.01447 | 13.5071 | 38.9055 | 26.3872 | 14.46160 | – |
| 2026 Apr 14 17:57 | 2026 Apr 13 05:01:10 | 98.9480 | 0.01447 | 13.5071 | 38.9055 | 26.3872 | 14.46160 | – |
| 2026 Apr 13 17:57 | 2026 Apr 13 05:01:10 | 98.9480 | 0.01447 | 13.5071 | 38.9055 | 26.3872 | 14.46160 | – |
| 2026 Apr 12 17:57 | 2026 Apr 08 05:27:40 | 98.9478 | 0.01450 | 13.1566 | 53.7185 | 26.3872 | 14.46160 | – |